Regional Weather Roundup
Issued by NWS

Home | Current Version | Previous Version | Graphics & Text | Print | Product List | Glossary On
Versions: 1 2 3 4 5 6 7 8 9 10 11 12 13 14 15 16 17 18 19 20 21 22 23 24 25 26 27 28 29 30 31 32 33 34 35 36 37 38 39 40 41 42 43 44 45 46 47 48 49 50
963
ASUS43 KDMX 271701
RWRIA

WEATHER ROUNDUP FOR IOWA
NATIONAL WEATHER SERVICE DES MOINES IA
1200 PM CDT TUE JUN 27 2017

NOTE: "FAIR" INDICATES FEW OR NO CLOUDS BELOW 12,000 FEET WITH NO
SIGNIFICANT WEATHER AND/OR OBSTRUCTIONS TO VISIBILITY.

* - THESE STATIONS ARE NOT NWS STATIONS...THUS NOT UNDER NWS
QUALITY CONTROL.  THEY ALSO DO NOT REPORT WEATHER SUCH
AS PRECIPITATION OR FOG.

IAZ001>003-012>014-020>022-031>034-043>046-271800-
   NORTHWEST IOWA

CITY           SKY/WX    TMP DP  RH WIND       PRES   REMARKS
CARROLL *      SUNNY     73  46  38 S16G23    30.06F
CHEROKEE *     SUNNY     72  47  41 S16G23    30.03F
DENISON *      SUNNY     72  48  43 S9G23     30.06F
LE MARS *      SUNNY     73  48  40 S16G24    30.01F
ORANGE CITY *  SUNNY     72  48  43 S15G21    30.01F
SHELDON *      SUNNY     72  46  40 S20G30    30.00F
SIOUX CITY     SUNNY     74  52  46 SE18G24   30.00F
SPENCER        SUNNY     74  44  34 S16G26    30.03F
STORM LAKE *   SUNNY     72  45  37 S18G25    30.04F
$$

IAZ055>058-069>071-079>083-090>094-271800-
   SOUTHWEST IOWA

CITY           SKY/WX    TMP DP  RH WIND       PRES   REMARKS
ATLANTIC *     SUNNY     73  52  46 S12G17    30.05F
AUDUBON *      SUNNY     72  50  46 S10G17    30.06F
CLARINDA *     MOSUNNY   73  59  60 S12G17    30.08F
COUNCIL BLFS * SUNNY     73  59  60 S17G25    30.03F
CRESTON *      SUNNY     73  52  46 SE14      30.09F
HARLAN  *      SUNNY     73  52  46 SE14      30.07F
LAMONI         SUNNY     72  55  55 SE8       30.09F
RED OAK *      MOSUNNY   73  59  60 S13       30.05F
SHENANDOAH *   SUNNY     73  59  60 SE13G18   30.05F
$$

IAZ047>049-059>061-072>074-084-271800-
   CENTRAL IOWA

CITY           SKY/WX    TMP DP  RH WIND       PRES   REMARKS
AMES           SUNNY     72  46  39 S14       30.09F
ANKENY *       SUNNY     72  46  40 S8G18     30.10F
BOONE *        SUNNY     72  45  37 SE13      30.08F
CHARITON *     SUNNY     73  48  40 S10G20    30.10F
DES MOINES     MOSUNNY   73  46  38 S9G22     30.09F
GRINNELL*      SUNNY     70  42  35 S9G16     30.12F
KNOXVILLE *    SUNNY     72  45  37 S10G20    30.09F
MARSHALLTOWN   SUNNY     71  44  37 S6        30.09F
NEWTON *       SUNNY     72  45  37 S12       30.10F
PELLA *        SUNNY     72  42  34 SE7       30.11F
PERRY *          N/A     71  43  35 SE10G17   30.09S
$$

IAZ004>006-015-016-023>025-035-036-271800-
   NORTH CENTRAL IOWA

CITY           SKY/WX    TMP DP  RH WIND       PRES   REMARKS
ALGONA *       SUNNY     72  41  33 S16G23    30.06F
CLARION *        N/A     72  43  35 S16       30.08F
ESTHERVILLE    SUNNY     70  44  39 S16G24    30.04F
FORT DODGE *   SUNNY     73  43  33 S13G21    30.08F
MASON CITY     SUNNY     71  42  35 S14G23    30.09F
FOREST CITY *    N/A     73  28  19 S8G17     30.08S
WEBSTER CITY * SUNNY     72  45  37 S14       30.06F
IOWA FALLS *     N/A     71  43  36 S9        30.10F
$$

IAZ007>011-017>019-026>030-037>042-050>054-066-271800-
   NORTHEAST IOWA

CITY           SKY/WX    TMP DP  RH WIND       PRES   REMARKS
CEDAR RAPIDS   SUNNY     70  47  43 S9        30.12F
CHARLES CITY * SUNNY     72  41  33 S12       30.09F
CLINTON *      SUNNY     72  46  39 SE6       30.14F
DECORAH *      SUNNY     70  41  35 VRB5G14   30.09F
DUBUQUE        SUNNY     70  43  37 VRB3      30.13F
MONTICELLO *   SUNNY     72  45  37 NW3       30.11F
WATERLOO       SUNNY     71  41  33 S10       30.09F
$$

IAZ064-065-067-068-078-271800-
   EAST CENTRAL IOWA

CITY           SKY/WX    TMP DP  RH WIND       PRES   REMARKS
DAVENPORT      SUNNY     71  43  36 VRB5      30.13F
IOWA CITY      SUNNY     73  45  36 E5        30.13F
MUSCATINE *    SUNNY     73  43  33 SE7G13    30.14S
QUAD CITIES    SUNNY     72  43  35 SE6       30.13F
$$

IAZ062-063-075>077-085>089-095>099-271800-
   SOUTHEAST IOWA

CITY           SKY/WX    TMP DP  RH WIND       PRES   REMARKS
BURLINGTON     SUNNY     71  44  37 S3        30.14F
FAIRFIELD *    SUNNY     73  39  29 CALM      30.12F
FORT MADISON * SUNNY     72  45  37 CALM      30.14F
KEOKUK *       SUNNY     73  45  35 S5        30.13F
OSKALOOSA *      N/A     72  42  34 S7        30.12F
OTTUMWA        SUNNY     73  44  35 SE8       30.12F
WASHINGTON *   SUNNY     72  45  37 S8G14     30.14F
$$

ABBREVIATIONS USED IN REMARKS
   TC - TEMPERATURES IN CELSIUS
  WCI - WIND CHILL INDEX
   HX - HEAT INDEX
  VSB - VISIBILITY
$$





USA.gov is the U.S. government's official web portal to all federal, state and local government web resources and services.